N5295M MYGF-MYEH

Flight info

Callsign N5295M
Flight time 0h 51m
Altitude 3500
Route FLINY DCT MYAO DCT MYAS
Aircraft M20R/L-BDFGLORWY/S

Departure

Time 2026-05-07 18:41
Airport Grand Bahama International Airport (MYGF)

Arrival

Time 2026-05-07 19:32
Airport North Eleuthera Airport (MYEH)
Time Latitude Longitude Altitude Speed Heading
2026-05-07 18:26 26.54785 -78.70059 18 ft 0 kts 275°
2026-05-07 18:34 26.54792 -78.70080 18 ft 8 kts 320°
2026-05-07 18:34 26.54869 -78.70086 18 ft 10 kts
2026-05-07 18:34 26.54911 -78.70139 18 ft 13 kts 273°
2026-05-07 18:34 26.54922 -78.70232 18 ft 12 kts 307°
2026-05-07 18:35 26.55004 -78.70205 18 ft 19 kts 40°
2026-05-07 18:35 26.55128 -78.70082 18 ft 27 kts 41°
2026-05-07 18:35 26.55270 -78.69948 18 ft 27 kts 41°
2026-05-07 18:35 26.55405 -78.69813 18 ft 25 kts 42°
2026-05-07 18:36 26.55536 -78.69685 18 ft 25 kts 42°
2026-05-07 18:36 26.55664 -78.69568 18 ft 23 kts 42°
2026-05-07 18:36 26.55780 -78.69450 18 ft 25 kts 55°
2026-05-07 18:36 26.55867 -78.69273 19 ft 28 kts 61°
2026-05-07 18:37 26.55960 -78.69089 18 ft 26 kts 62°
2026-05-07 18:37 26.56044 -78.68920 18 ft 24 kts 60°
2026-05-07 18:37 26.56104 -78.68795 17 ft 12 kts 61°
2026-05-07 18:37 26.56124 -78.68781 17 ft 0 kts 286°
2026-05-07 18:39 26.56152 -78.68789 17 ft 11 kts 346°
2026-05-07 18:39 26.56219 -78.68848 16 ft 14 kts 259°
2026-05-07 18:40 26.56118 -78.69060 18 ft 51 kts 240°
2026-05-07 18:40 26.55905 -78.69508 85 ft 73 kts 245°
2026-05-07 18:40 26.55645 -78.70036 259 ft 82 kts 243°
2026-05-07 18:40 26.55446 -78.70405 382 ft 88 kts 238°
2026-05-07 18:41 26.54684 -78.70721 759 ft 100 kts 164°
2026-05-07 18:41 26.54314 -78.70399 936 ft 108 kts 130°
2026-05-07 18:41 26.54107 -78.69569 1215 ft 119 kts 92°
2026-05-07 18:41 26.54252 -78.68250 1363 ft 138 kts 85°
2026-05-07 18:42 26.54388 -78.67149 1437 ft 148 kts 84°
2026-05-07 18:42 26.54575 -78.65979 1406 ft 160 kts 75°
2026-05-07 18:42 26.54847 -78.65192 1454 ft 162 kts 65°
2026-05-07 18:42 26.55331 -78.64049 1452 ft 164 kts 69°
2026-05-07 18:43 26.55632 -78.62825 1447 ft 166 kts 83°
2026-05-07 18:43 26.55674 -78.61539 1468 ft 166 kts 92°
2026-05-07 18:43 26.55653 -78.60255 1490 ft 167 kts 93°
2026-05-07 18:43 26.55637 -78.58927 1475 ft 173 kts 92°
2026-05-07 18:44 26.55614 -78.57595 1479 ft 171 kts 93°
2026-05-07 18:44 26.55591 -78.56265 1484 ft 173 kts 92°
2026-05-07 18:44 26.55632 -78.54896 1473 ft 181 kts 84°
2026-05-07 18:44 26.55842 -78.53512 1472 ft 180 kts 79°
2026-05-07 18:45 26.56125 -78.52148 1476 ft 180 kts 77°
2026-05-07 18:45 26.56406 -78.50792 1472 ft 179 kts 78°
2026-05-07 18:45 26.56682 -78.49441 1471 ft 178 kts 78°
2026-05-07 18:45 26.56962 -78.48089 1472 ft 179 kts 78°
2026-05-07 18:46 26.57243 -78.46753 1467 ft 178 kts 78°
2026-05-07 18:46 26.57531 -78.45412 1464 ft 177 kts 78°
2026-05-07 18:46 26.57819 -78.44078 1463 ft 177 kts 78°
2026-05-07 18:46 26.58110 -78.42739 1464 ft 178 kts 77°
2026-05-07 18:47 26.58396 -78.41390 1467 ft 178 kts 77°
2026-05-07 18:47 26.58685 -78.40039 1460 ft 178 kts 77°
2026-05-07 18:47 26.58970 -78.38700 1462 ft 177 kts 77°
2026-05-07 18:47 26.59246 -78.37363 1460 ft 177 kts 77°
2026-05-07 18:48 26.59520 -78.36025 1463 ft 177 kts 77°
2026-05-07 18:48 26.59793 -78.34680 1474 ft 177 kts 78°
2026-05-07 18:48 26.60072 -78.33345 1486 ft 176 kts 77°
2026-05-07 18:48 26.60348 -78.32027 1492 ft 174 kts 77°
2026-05-07 18:49 26.60624 -78.30717 1492 ft 173 kts 77°
2026-05-07 18:49 26.60897 -78.29402 1490 ft 174 kts 78°
2026-05-07 18:49 26.61184 -78.28089 1488 ft 173 kts 77°
2026-05-07 18:49 26.61467 -78.26780 1490 ft 173 kts 78°
2026-05-07 18:50 26.61687 -78.25463 1489 ft 172 kts 82°
2026-05-07 18:50 26.61863 -78.24147 1498 ft 175 kts 83°
2026-05-07 18:50 26.62033 -78.22775 1495 ft 181 kts 84°
2026-05-07 18:50 26.62215 -78.21383 1499 ft 181 kts 83°
2026-05-07 18:51 26.62399 -78.19991 1501 ft 180 kts 82°
2026-05-07 18:51 26.62581 -78.18600 1498 ft 181 kts 82°
2026-05-07 18:51 26.62760 -78.17208 1504 ft 182 kts 83°
2026-05-07 18:51 26.62942 -78.15807 1502 ft 182 kts 83°
2026-05-07 18:52 26.63123 -78.14415 1490 ft 180 kts 83°
2026-05-07 18:52 26.63300 -78.13043 1493 ft 177 kts 82°
2026-05-07 18:52 26.63476 -78.11690 1488 ft 175 kts 82°
2026-05-07 18:52 26.63649 -78.10350 1486 ft 174 kts 83°
2026-05-07 18:53 26.63821 -78.09019 1568 ft 170 kts 83°
2026-05-07 18:53 26.63985 -78.07754 1816 ft 165 kts 83°
2026-05-07 18:53 26.64148 -78.06503 2051 ft 160 kts 82°
2026-05-07 18:53 26.64307 -78.05267 2231 ft 161 kts 82°
2026-05-07 18:54 26.64363 -78.04015 2404 ft 162 kts 90°
2026-05-07 18:54 26.64344 -78.02748 2578 ft 164 kts 92°
2026-05-07 18:54 26.64300 -78.01455 2725 ft 168 kts 92°
2026-05-07 18:54 26.64199 -78.00154 2865 ft 168 kts 103°
2026-05-07 18:55 26.63918 -77.98879 3019 ft 170 kts 105°
2026-05-07 18:55 26.63634 -77.97607 3165 ft 171 kts 105°
2026-05-07 18:55 26.63351 -77.96318 3312 ft 170 kts 105°
2026-05-07 18:55 26.62918 -77.95111 3448 ft 167 kts 125°
2026-05-07 18:56 26.62266 -77.94019 3486 ft 173 kts 126°
2026-05-07 18:56 26.61503 -77.92961 3489 ft 177 kts 138°
2026-05-07 18:56 26.60610 -77.91998 3493 ft 180 kts 138°
2026-05-07 18:56 26.59747 -77.90976 3495 ft 181 kts 135°
2026-05-07 18:57 26.58915 -77.89938 3498 ft 178 kts 134°
2026-05-07 18:57 26.58091 -77.88910 3499 ft 177 kts 135°
2026-05-07 18:57 26.57274 -77.87895 3497 ft 178 kts 135°
2026-05-07 18:57 26.56303 -77.87035 3495 ft 176 kts 153°
2026-05-07 18:58 26.55255 -77.86372 3491 ft 176 kts 154°
2026-05-07 18:58 26.54181 -77.85703 3497 ft 177 kts 154°
2026-05-07 18:58 26.53103 -77.85043 3495 ft 176 kts 154°
2026-05-07 18:58 26.52030 -77.84389 3496 ft 175 kts 154°
2026-05-07 18:59 26.50961 -77.83737 3495 ft 175 kts 154°
2026-05-07 18:59 26.49897 -77.83086 3495 ft 175 kts 154°
2026-05-07 18:59 26.48837 -77.82429 3494 ft 174 kts 154°
2026-05-07 18:59 26.47780 -77.81774 3493 ft 174 kts 154°
2026-05-07 19:00 26.46720 -77.81123 3495 ft 174 kts 154°
2026-05-07 19:00 26.45661 -77.80479 3497 ft 173 kts 154°
2026-05-07 19:00 26.44603 -77.79834 3499 ft 173 kts 154°
2026-05-07 19:00 26.43543 -77.79187 3498 ft 174 kts 154°
2026-05-07 19:01 26.42592 -77.78398 3483 ft 177 kts 129°
2026-05-07 19:01 26.41979 -77.77206 3490 ft 178 kts 121°
2026-05-07 19:01 26.41384 -77.75995 3486 ft 177 kts 121°
2026-05-07 19:01 26.40792 -77.74789 3490 ft 177 kts 121°
2026-05-07 19:02 26.40204 -77.73583 3490 ft 177 kts 121°
2026-05-07 19:02 26.39616 -77.72379 3490 ft 177 kts 121°
2026-05-07 19:02 26.39026 -77.71179 3490 ft 176 kts 122°
2026-05-07 19:02 26.38331 -77.70069 3489 ft 174 kts 130°
2026-05-07 19:03 26.37595 -77.68994 3487 ft 175 kts 130°
2026-05-07 19:03 26.36860 -77.67912 3483 ft 175 kts 130°
2026-05-07 19:03 26.36130 -77.66839 3492 ft 176 kts 130°
2026-05-07 19:03 26.35383 -77.65750 3490 ft 177 kts 130°
2026-05-07 19:04 26.34518 -77.64792 3488 ft 175 kts 143°
2026-05-07 19:04 26.33570 -77.63934 3491 ft 176 kts 144°
2026-05-07 19:04 26.32614 -77.63077 3493 ft 177 kts 144°
2026-05-07 19:04 26.31582 -77.62354 3493 ft 175 kts 158°
2026-05-07 19:05 26.30466 -77.61828 3490 ft 174 kts 160°
2026-05-07 19:05 26.29345 -77.61307 3492 ft 175 kts 160°
2026-05-07 19:05 26.28224 -77.60791 3490 ft 174 kts 160°
2026-05-07 19:05 26.27105 -77.60274 3491 ft 174 kts 160°
2026-05-07 19:06 26.26003 -77.59763 3493 ft 174 kts 160°
2026-05-07 19:06 26.23775 -77.58731 3491 ft 173 kts 160°
2026-05-07 19:06 26.22672 -77.58214 3490 ft 172 kts 160°
2026-05-07 19:07 26.21556 -77.57761 3484 ft 170 kts 167°
2026-05-07 19:07 26.20417 -77.57434 3485 ft 169 kts 168°
2026-05-07 19:07 26.19278 -77.57108 3485 ft 169 kts 168°
2026-05-07 19:07 26.18133 -77.56783 3487 ft 170 kts 168°
2026-05-07 19:08 26.16990 -77.56458 3491 ft 170 kts 168°
2026-05-07 19:08 26.15847 -77.56134 3492 ft 169 kts 168°
2026-05-07 19:08 26.14693 -77.55882 3493 ft 169 kts 176°
2026-05-07 19:08 26.13522 -77.55758 3493 ft 169 kts 177°
2026-05-07 19:09 26.12347 -77.55636 3492 ft 169 kts 177°
2026-05-07 19:09 26.11173 -77.55511 3494 ft 170 kts 177°
2026-05-07 19:09 26.09999 -77.55390 3488 ft 169 kts 177°
2026-05-07 19:09 26.08877 -77.55028 3484 ft 172 kts 147°
2026-05-07 19:10 26.08089 -77.54015 3489 ft 175 kts 128°
2026-05-07 19:10 26.07385 -77.52926 3489 ft 176 kts 129°
2026-05-07 19:10 26.06623 -77.51860 3491 ft 176 kts 132°
2026-05-07 19:10 26.05856 -77.50791 3488 ft 177 kts 131°
2026-05-07 19:11 26.05099 -77.49711 3498 ft 177 kts 130°
2026-05-07 19:11 26.04342 -77.48629 3497 ft 177 kts 130°
2026-05-07 19:11 26.03588 -77.47548 3494 ft 177 kts 130°
2026-05-07 19:11 26.02833 -77.46468 3497 ft 177 kts 131°
2026-05-07 19:12 26.02078 -77.45391 3486 ft 176 kts 131°
2026-05-07 19:12 26.01326 -77.44316 3492 ft 176 kts 131°
2026-05-07 19:12 26.00574 -77.43243 3488 ft 175 kts 131°
2026-05-07 19:12 25.99840 -77.42192 3494 ft 174 kts 131°
2026-05-07 19:13 25.99096 -77.41131 3495 ft 174 kts 130°
2026-05-07 19:13 25.98352 -77.40071 3494 ft 174 kts 131°
2026-05-07 19:13 25.97608 -77.39009 3493 ft 174 kts 131°
2026-05-07 19:13 25.96868 -77.37951 3494 ft 173 kts 131°
2026-05-07 19:14 25.96129 -77.36897 3487 ft 173 kts 131°
2026-05-07 19:14 25.95392 -77.35844 3598 ft 169 kts 131°
2026-05-07 19:14 25.94687 -77.34839 3845 ft 161 kts 131°
2026-05-07 19:14 25.94012 -77.33874 4082 ft 155 kts 131°
2026-05-07 19:15 25.93358 -77.32942 4320 ft 150 kts 131°
2026-05-07 19:15 25.92730 -77.32047 4557 ft 147 kts 131°
2026-05-07 19:15 25.92104 -77.31155 4798 ft 146 kts 131°
2026-05-07 19:15 25.91474 -77.30260 4966 ft 148 kts 131°
2026-05-07 19:16 25.90836 -77.29350 5136 ft 150 kts 131°
2026-05-07 19:16 25.90187 -77.28428 5265 ft 154 kts 131°
2026-05-07 19:16 25.89522 -77.27482 5389 ft 157 kts 131°
2026-05-07 19:16 25.88846 -77.26520 5513 ft 159 kts 131°
2026-05-07 19:17 25.88156 -77.25538 5567 ft 166 kts 131°
2026-05-07 19:17 25.87427 -77.24505 5548 ft 173 kts 130°
2026-05-07 19:17 25.86677 -77.23438 5523 ft 176 kts 130°
2026-05-07 19:17 25.85930 -77.22373 5510 ft 178 kts 131°
2026-05-07 19:18 25.85164 -77.21285 5509 ft 179 kts 131°
2026-05-07 19:18 25.84397 -77.20196 5508 ft 179 kts 131°
2026-05-07 19:18 25.83628 -77.19104 5508 ft 179 kts 131°
2026-05-07 19:18 25.82862 -77.18013 5508 ft 179 kts 131°
2026-05-07 19:19 25.82097 -77.16927 5505 ft 179 kts 131°
2026-05-07 19:19 25.81333 -77.15843 5505 ft 178 kts 131°
2026-05-07 19:19 25.80570 -77.14760 5505 ft 178 kts 131°
2026-05-07 19:19 25.79809 -77.13679 5505 ft 178 kts 131°
2026-05-07 19:20 25.79047 -77.12598 5507 ft 178 kts 131°
2026-05-07 19:20 25.78284 -77.11516 5506 ft 178 kts 131°
2026-05-07 19:20 25.77520 -77.10432 5506 ft 178 kts 131°
2026-05-07 19:20 25.76765 -77.09361 5506 ft 178 kts 131°
2026-05-07 19:21 25.76001 -77.08279 5506 ft 178 kts 131°
2026-05-07 19:21 25.75281 -77.07160 5498 ft 180 kts 118°
2026-05-07 19:21 25.74776 -77.05899 5494 ft 178 kts 127°
2026-05-07 19:21 25.73998 -77.04845 5496 ft 176 kts 134°
2026-05-07 19:22 25.73203 -77.03805 5497 ft 177 kts 133°
2026-05-07 19:22 25.72430 -77.02735 5497 ft 178 kts 131°
2026-05-07 19:22 25.71662 -77.01659 5497 ft 178 kts 131°
2026-05-07 19:22 25.70894 -77.00585 5498 ft 178 kts 131°
2026-05-07 19:23 25.70122 -76.99508 5500 ft 179 kts 131°
2026-05-07 19:23 25.69356 -76.98441 5500 ft 179 kts 131°
2026-05-07 19:23 25.68574 -76.97350 5422 ft 183 kts 131°
2026-05-07 19:23 25.67776 -76.96238 5327 ft 185 kts 131°
2026-05-07 19:24 25.66928 -76.95168 5229 ft 185 kts 136°
2026-05-07 19:24 25.66039 -76.94131 5130 ft 186 kts 137°
2026-05-07 19:24 25.65161 -76.93080 5040 ft 186 kts 135°
2026-05-07 19:24 25.64310 -76.92006 4939 ft 185 kts 135°
2026-05-07 19:25 25.63465 -76.90932 4802 ft 185 kts 135°
2026-05-07 19:25 25.62622 -76.89861 4652 ft 184 kts 135°
2026-05-07 19:25 25.61791 -76.88807 4469 ft 185 kts 135°
2026-05-07 19:25 25.60945 -76.87734 4271 ft 185 kts 135°
2026-05-07 19:26 25.60102 -76.86666 4079 ft 184 kts 135°
2026-05-07 19:26 25.59259 -76.85597 3877 ft 184 kts 135°
2026-05-07 19:26 25.58409 -76.84533 3690 ft 185 kts 135°
2026-05-07 19:26 25.57564 -76.83484 3491 ft 180 kts 135°
2026-05-07 19:27 25.56736 -76.82458 3295 ft 177 kts 135°
2026-05-07 19:27 25.55912 -76.81452 3095 ft 176 kts 136°
2026-05-07 19:27 25.55025 -76.80536 2809 ft 175 kts 146°
2026-05-07 19:27 25.54038 -76.79834 2614 ft 165 kts 152°
2026-05-07 19:28 25.53054 -76.79239 2362 ft 159 kts 156°
2026-05-07 19:28 25.52075 -76.78657 2022 ft 161 kts 150°
2026-05-07 19:28 25.51165 -76.77979 1764 ft 155 kts 147°
2026-05-07 19:28 25.50317 -76.77260 1598 ft 150 kts 143°
2026-05-07 19:29 25.49517 -76.76540 1384 ft 147 kts 144°
2026-05-07 19:29 25.48722 -76.75846 1178 ft 145 kts 144°
2026-05-07 19:29 25.47943 -76.75154 976 ft 143 kts 145°
2026-05-07 19:29 25.47200 -76.74443 841 ft 139 kts 139°
2026-05-07 19:30 25.46556 -76.73671 663 ft 134 kts 132°
2026-05-07 19:30 25.46116 -76.72857 566 ft 117 kts 115°
2026-05-07 19:30 25.46107 -76.72021 512 ft 109 kts 66°
2026-05-07 19:30 25.46429 -76.71258 447 ft 109 kts 68°
2026-05-07 19:31 25.46707 -76.70495 352 ft 104 kts 69°
2026-05-07 19:31 25.46972 -76.69762 214 ft 100 kts 70°
2026-05-07 19:31 25.47225 -76.69063 41 ft 95 kts 69°
2026-05-07 19:31 25.47431 -76.68499 11 ft 52 kts 67°
2026-05-07 19:32 25.47499 -76.68298 9 ft 21 kts 65°
2026-05-07 19:32 25.47565 -76.68181 8 ft 10 kts
2026-05-07 19:32 25.47602 -76.68191 8 ft 8 kts 319°
2026-05-07 19:32 25.47613 -76.68259 7 ft 10 kts 268°
2026-05-07 19:33 25.47628 -76.68300 9 ft 2 kts 310°
2026-05-07 19:33 25.47624 -76.68320 6 ft 3 kts 179°
2026-05-07 19:33 25.47621 -76.68319 6 ft 0 kts 159°